Location: Costa Valle Imagna
(45.8000°N, 9.5000°E)
Time: 08:52:13
(UTC+00:00)

STARLINK-1083 - Pass Details

Date: 17 February 2020
Orbit: 548 x 550 km, 53.0° (Epoch: 01 April)

Event Time Altitude Azimuth Distance (km) Brightness Sun altitude
Exits shadow 03:50:30 31° 130° (SE) 954 5.1 -27.0°
Drops below altitude 10° 03:53:57 10° 73° (ENE) 1,803 7.2 -26.4°
Enters shadow 04:52:28 -66° 240° (WSW) 12,249 10.4 -16.3°
Maximum altitude 05:29:36 57° 335° (NNW) 639 3.8 -9.8°
